Hourly Data Report for October 27, 2015

All times are specified in Local Standard Time (LST). Add 1 hour to adjust for Daylight Saving Time where and when it is observed.

MONCTON INTL A
NEW BRUNSWICK

46°06'44.000" N
64°40'43.000" W
70.70 m
8103201
71705
YQM

Download Data

Hourly Data (October 2015)
Hourly Data Report for October 27, 2015
Temp Definition
°C
Dew Point Temp Definition
°C
Rel Hum Definition
%
Wind Dir Definition
10's deg

Wind Spd Definition
km/h
Visibility Definition
km
Stn Press Definition
kPa
Hmdx Definition


Wind Chill Definition


Weather Definition


TIME
00:00 Legend Double Dagger -2.7 -7.4 70 28 15 24.1 102.22   -8 LegendNANA
01:00 Legend Double Dagger -3.7 -7.7 74 25 14 24.1 102.27   -9 LegendNANA
02:00 Legend Double Dagger -3.8 -7.6 75 25 13 24.1 102.28   -9 Clear
03:00 Legend Double Dagger -4.4 -7.5 79 24 14 24.1 102.26   -10 LegendNANA
04:00 Legend Double Dagger -4.9 -7.7 81 23 14 24.1 102.29   -10 LegendNANA
05:00 Legend Double Dagger -5.4 -7.5 85 23 13 24.1 102.33   -11 Clear
06:00 Legend Double Dagger -5.7 -7.7 86 22 13 24.1 102.34   -11 LegendNANA
07:00 Legend Double Dagger -5.8 -7.5 88 22 14 24.1 102.36   -11 LegendNANA
08:00 Legend Double Dagger -3.6 -6.4 81 23 15 24.1 102.41   -9 Clear
09:00 Legend Double Dagger -1.6 -5.5 75 24 17 24.1 102.47   -7 LegendNANA
10:00 Legend Double Dagger 1.7 -4.6 63 24 17 24.1 102.47     LegendNANA
11:00 Legend Double Dagger 3.6 -5.4 52 25 21 24.1 102.42     Clear
12:00 Legend Double Dagger 5.0 -5.7 46 27 27 24.1 102.34     LegendNANA
13:00 Legend Double Dagger 5.9 -5.1 45 25 30 24.1 102.23     LegendNANA
14:00 Legend Double Dagger 7.1 -5.0 42 27 28 24.1 102.16     Clear
15:00 Legend Double Dagger 7.0 -4.1 45 25 24 24.1 102.11     LegendNANA
16:00 Legend Double Dagger 6.6 -4.5 45 24 29 24.1 102.13     LegendNANA
17:00 Legend Double Dagger 5.6 -4.6 48 25 21 24.1 102.12     Mainly Clear
18:00 Legend Double Dagger 3.5 -4.5 56 23 14 24.1 102.16     LegendNANA
19:00 Legend Double Dagger 2.2 -4.3 62 22 14 24.1 102.18     LegendNANA
20:00 Legend Double Dagger 1.0 -4.5 67 22 17 24.1 102.19     Mostly Cloudy
21:00 Legend Double Dagger -0.3 -4.6 73 22 15 24.1 102.25   -5 LegendNANA
22:00 Legend Double Dagger 1.0 -4.5 67 24 17 24.1 102.28     LegendNANA
23:00 Legend Double Dagger 2.0 -3.9 65 25 19 24.1 102.30     Mainly Clear

Notes on Data Quality.

Legend

  • E = Estimated
  • M = Missing
  • NA = Not Available
  • ‡ = Partner data that is not subject to review by the National Climate Archives
Date modified: